Flag for Germany Weather past 2 weeks in Pfaffenhofen an der Ilm, Bavaria, Germany

Now
77 °F

Partly sunny.


Feels Like: 77 °F
Forecast: 56 / 77 °F
Wind: 6 mph from Southeast

Location: Ingolstadt Airport

Current Time: Jul 31, 2015 at 5:29:55 PM

Latest Report: Jul 31, 2015 at 4:20 PM


Visibility: N/A

Pressure: 29.98 "Hg

Humidity: 26%

Dew point: 39 °F

Location of Pfaffenhofen an der IlmLocation

Historic Weather in Pfaffenhofen an der Ilm — Graph

°F

Pfaffenhofen an der Ilm temperature yesterday

Maximum temperature yesterday: 70 °F (at 4:20 PM)
Minimum temperature yesterday: 46 °F (at 4:20 AM)
Average temperature yesterday: 60 °F

Past Weeks' High & Low Weather Summary

 TemperatureHumidityPressure
High97 °F (Jul 22, 4:20 PM)100% (Jul 30, 4:20 AM)30.09 "Hg (Jul 30, 4:20 AM)
Low46 °F (Jul 30, 4:20 AM)20% (Jul 17, 4:20 PM)29.71 "Hg (Jul 25, 12:20 AM)
Average71 °F59%29.95 "Hg
* Reported Jul 16 4:20 PM — Jul 31 4:20 PM, Pfaffenhofen an der Ilm, Weather by CustomWeather, © 2015

Note: Actual official high and low records may vary slightly from our data, if they occured in-between our weather recording intervals... More about our weather records

Advertising

Pfaffenhofen an der Ilm weather history for previous 24 hours

 ConditionsComfort  
Time TempWeatherWind HumidityBarometerVisibility
4:20 PM
Fri, Jul 31
77 °FPartly sunny.6 mph26%29.98 "HgN/A
3:20 PM75 °FPartly sunny.6 mph27%30.01 "HgN/A
2:20 PM73 °FPassing clouds.5 mph27%30.04 "HgN/A
2:00 PM72 °FPassing clouds.7 mph29%30.04 "HgN/A
1:20 PM72 °FPassing clouds.5 mph27%30.07 "HgN/A
12:20 PM70 °FPassing clouds.5 mph29%30.07 "HgN/A
11:20 AM68 °FPassing clouds.3 mph38%30.09 "HgN/A
10:20 AM66 °FPassing clouds.3 mph43%30.09 "HgN/A
9:20 AM61 °FPassing clouds.5 mph52%30.09 "HgN/A
8:20 AM57 °FPassing clouds.3 mph59%30.09 "HgN/A
7:20 AM54 °FPassing clouds.3 mph77%30.09 "HgN/A
6:20 AM48 °FPassing clouds.2 mph82%30.07 "HgN/A
5:20 AM50 °FPassing clouds.3 mph82%30.07 "HgN/A
4:20 AM52 °FCool.2 mph77%30.07 "HgN/A
3:20 AM55 °FCool.1 mph72%30.07 "HgN/A
2:20 AM55 °FCool.2 mph67%30.07 "HgN/A
1:20 AM55 °FCool.2 mph72%30.07 "HgN/A
12:20 AM57 °FCool.2 mph63%30.04 "HgN/A
11:20 PM
Thu, Jul 30
59 °FRefreshingly cool.2 mph59%30.04 "HgN/A
10:20 PM63 °FMild.2 mph49%30.04 "HgN/A
9:20 PM64 °FMild.5 mph43%30.01 "HgN/A
8:20 PM66 °FPartly sunny.6 mph37%30.01 "HgN/A
7:20 PM68 °FPassing clouds.8 mph35%29.98 "HgN/A
6:20 PM70 °FPassing clouds.6 mph35%29.98 "HgN/A
6:00 PM70 °FPassing clouds.9 mph35%29.98 "HgN/A
5:20 PM70 °FPassing clouds.9 mph33%29.98 "HgN/A
Weather by CustomWeather, © 2015

See weather overviewHow to use our weather pages